Location: ??
(34.9170°N, 135.5016°E)
Time: 18:13:11
(UTC+00:00)

Cosmos 1140 Rocket - Pass Details

Date: 29 October 2020
Orbit: 744 x 767 km, 74.1° (Epoch: 29 November)

Event Time Altitude Azimuth Distance (km) Brightness Sun altitude
Rises 20:45:18 0° 214° (SW) 3,176 6.5 -7.1°
Reaches altitude 10° 20:47:47 10° 222° (SW) 2,254 5.7 -6.6°
Maximum altitude 20:52:34 40° 292° (WNW) 1,081 3.9 -5.7°
Drops below altitude 10° 20:57:23 10° 2° (N) 2,263 5.8 -4.7°
Sets 20:59:53 0° 10° (N) 3,190 6.7 -4.2°
